DB5ZQ Weather Reports


time (UTC)temp
C
wind
direction
speed
KPH
gust
KPH
rain 1hr
cm
rain 24hr
cm
rain mn
cm
humidity
%
barometer
mb
20260506143919 18 108 1.6 9.7 0.00 0.33 0.15 65 1001.7
20260506143419 18 97 4.8 14.5 0.00 0.33 0.15 64 1001.6
20260506142919 18 0 4.8 9.7 0.00 0.33 0.15 63 1001.5
20260506142418 18 109 1.6 9.7 0.00 0.33 0.15 61 1001.5
20260506141918 18 25 0.0 12.9 0.00 0.33 0.15 61 1001.5
20260506141418 19 119 0.0 4.8 0.00 0.33 0.15 60 1001.5
20260506140918 19 97 0.0 6.4 0.00 0.33 0.15 60 1001.4
20260506140417 19 151 3.2 6.4 0.00 0.33 0.15 59 1001.4
20260506135917 19 63 3.2 11.3 0.00 0.33 0.15 58 1001.3
20260506135417 20 23 1.6 11.3 0.00 0.33 0.15 57 1001.2
20260506134916 20 150 9.7 9.7 0.00 0.33 0.15 56 1001.3
20260506134416 20 289 0.0 9.7 0.00 0.33 0.15 55 1001.3
20260506133917 21 81 1.6 9.7 0.00 0.33 0.15 54 1001.3
20260506133416 20 171 3.2 14.5 0.00 0.33 0.15 52 1001.3
20260506132915 21 28 1.6 9.7 0.00 0.33 0.15 53 1001.3
20260506132415 21 104 4.8 9.7 0.00 0.33 0.15 52 1001.3
20260506131915 21 300 1.6 9.7 0.00 0.33 0.15 53 1001.4
20260506131414 21 350 6.4 11.3 0.00 0.33 0.15 52 1001.3
20260506130914 20 192 6.4 12.9 0.00 0.33 0.15 53 1001.3
20260506130414 20 12 4.8 16.1 0.00 0.33 0.15 56 1001.3
20260506125914 20 36 4.8 11.3 0.00 0.33 0.15 56 1001.3
20260506125413 20 8 3.2 14.5 0.00 0.33 0.15 56 1001.4
20260506124913 20 1 3.2 14.5 0.00 0.33 0.15 56 1001.3
20260506124413 20 147 3.2 11.3 0.00 0.33 0.15 56 1001.4
20260506123912 20 313 0.0 12.9 0.00 0.33 0.15 57 1001.4
20260506123412 20 5 6.4 11.3 0.00 0.33 0.15 57 1001.4
20260506122912 19 272 1.6 12.9 0.00 0.33 0.15 58 1001.4
20260506122412 19 2 4.8 11.3 0.00 0.33 0.15 58 1001.4
20260506121911 19 123 3.2 11.3 0.00 0.33 0.15 57 1001.3
20260506121411 20 135 6.4 14.5 0.00 0.33 0.15 56 1001.4
20260506120911 20 331 0.0 12.9 0.00 0.33 0.15 55 1001.4
20260506120411 20 337 3.2 11.3 0.00 0.33 0.15 54 1001.3
20260506115910 20 85 4.8 12.9 0.00 0.33 0.15 53 1001.4
20260506115410 20 8 8.0 11.3 0.00 0.33 0.15 52 1001.4
20260506114910 20 358 8.0 11.3 0.00 0.33 0.15 54 1001.4
20260506114409 20 336 1.6 9.7 0.00 0.33 0.15 58 1001.3
20260506113909 18 74 0.0 6.4 0.00 0.33 0.15 62 1001.3
20260506113409 18 347 1.6 9.7 0.00 0.33 0.15 62 1001.4
20260506112909 18 32 0.0 8.0 0.00 0.33 0.15 62 1001.4
20260506112408 18 45 3.2 8.0 0.00 0.33 0.15 62 1001.5
20260506111908 18 149 1.6 6.4 0.00 0.33 0.15 62 1001.5
20260506111408 18 111 1.6 11.3 0.00 0.33 0.15 62 1001.6
20260506110907 18 95 0.0 8.0 0.00 0.33 0.15 62 1001.6
20260506110407 18 28 0.0 9.7 0.00 0.33 0.15 62 1001.6
20260506105907 18 104 1.6 11.3 0.00 0.33 0.15 63 1001.6
20260506105407 18 14 6.4 16.1 0.00 0.33 0.15 63 1001.6
20260506104906 18 127 14.5 14.5 0.00 0.33 0.15 63 1001.6
20260506104406 18 30 0.0 6.4 0.00 0.33 0.15 63 1001.6
20260506103906 18 150 3.2 9.7 0.00 0.33 0.15 63 1001.7
20260506103405 18 4 4.8 9.7 0.00 0.33 0.15 63 1001.7
20260506102905 18 95 3.2 12.9 0.00 0.33 0.15 62 1001.7
20260506102405 17 19 0.0 9.7 0.00 0.33 0.15 63 1001.6
20260506101905 17 42 3.2 11.3 0.00 0.33 0.15 62 1001.7
20260506101404 17 29 3.2 12.9 0.00 0.33 0.15 61 1001.6
20260506100904 18 336 8.0 9.7 0.00 0.33 0.15 62 1001.6
20260506100404 18 8 3.2 11.3 0.00 0.33 0.15 61 1001.6
20260506095904 18 4 6.4 12.9 0.00 0.33 0.15 61 1001.7
20260506095403 18 289 1.6 8.0 0.00 0.33 0.15 61 1001.6
20260506094903 18 50 0.0 12.9 0.00 0.33 0.15 61 1001.5
20260506094403 18 91 1.6 11.3 0.00 0.33 0.15 62 1001.5
20260506093902 18 108 3.2 8.0 0.00 0.33 0.15 63 1001.6
20260506093402 17 146 4.8 9.7 0.00 0.33 0.15 64 1001.7
20260506092902 17 1 1.6 9.7 0.00 0.33 0.15 64 1001.6
20260506092402 17 22 3.2 12.9 0.00 0.33 0.15 64 1001.6
20260506091901 17 210 0.0 11.3 0.00 0.33 0.15 66 1001.6
20260506091401 17 40 1.6 9.7 0.00 0.33 0.15 67 1001.7
20260506090901 17 49 3.2 9.7 0.00 0.33 0.15 66 1001.8
20260506090400 17 25 3.2 8.0 0.00 0.33 0.15 67 1001.7
20260506085900 17 50 3.2 12.9 0.00 0.33 0.15 67 1001.7
20260506085400 17 144 12.9 12.9 0.00 0.33 0.15 67 1001.7
20260506084900 17 358 8.0 16.1 0.00 0.33 0.15 68 1001.6
20260506084359 17 25 4.8 9.7 0.00 0.33 0.15 68 1001.6
20260506083859 16 113 0.0 8.0 0.00 0.33 0.15 69 1001.5
20260506083359 16 25 3.2 12.9 0.00 0.33 0.15 68 1001.6
20260506082858 17 47 6.4 12.9 0.00 0.33 0.15 69 1001.5
20260506082358 16 347 4.8 12.9 0.00 0.33 0.15 68 1001.5
20260506081858 16 333 1.6 11.3 0.00 0.33 0.15 69 1001.4
20260506081358 17 119 1.6 8.0 0.00 0.33 0.15 71 1001.4
20260506080857 16 19 1.6 11.3 0.00 0.33 0.15 71 1001.4
20260506080357 16 26 3.2 6.4 0.00 0.33 0.15 73 1001.4
20260506073355 16 316 3.2 12.9 0.00 0.33 0.15 77 1001.4
20260506072855 15 39 3.2 11.3 0.00 0.33 0.15 78 1001.5
20260506072355 15 291 6.4 11.3 0.00 0.33 0.15 79 1001.5
20260506071854 16 28 0.0 12.9 0.00 0.33 0.15 79 1001.5
20260506071354 15 1 9.7 14.5 0.00 0.33 0.15 79 1001.5
20260506070854 15 22 3.2 9.7 0.00 0.33 0.15 81 1001.6
20260506070354 15 23 1.6 8.0 0.00 0.33 0.15 81 1001.5
20260506062351 15 32 6.4 8.0 0.00 0.33 0.15 84 1001.4
20260506061851 15 66 0.0 8.0 0.00 0.33 0.15 84 1001.4
20260506061351 15 4 4.8 9.7 0.00 0.33 0.15 84 1001.5
20260506060850 15 50 0.0 4.8 0.00 0.33 0.15 85 1001.4
20260506060350 15 284 0.0 8.0 0.00 0.33 0.15 85 1001.4
20260506051347 15 45 0.0 6.4 0.00 0.33 0.15 87 1001.4
20260506050847 15 28 1.6 4.8 0.00 0.33 0.15 87 1001.4
20260506050347 15 78 0.0 4.8 0.00 0.33 0.15 87 1001.4
20260506044846 15 57 0.0 4.8 0.00 0.33 0.15 87 1001.4
20260506044346 14 60 1.6 8.0 0.00 0.33 0.15 87 1001.5
20260506043845 15 5 0.0 3.2 0.00 0.33 0.15 87 1001.4
20260506043345 15 151 0.0 6.4 0.00 0.33 0.15 87 1001.5
20260506042845 15 358 0.0 6.4 0.00 0.33 0.15 86 1001.5
20260506042345 15 9 0.0 3.2 0.00 0.33 0.15 86 1001.5
20260506041844 15 18 0.0 0.0 0.00 0.33 0.15 86 1001.6
20260506041344 15 18 0.0 0.0 0.00 0.33 0.15 86 1001.5
20260506040844 15 18 0.0 0.0 0.00 0.33 0.15 86 1001.6
20260506040343 15 18 0.0 4.8 0.00 0.33 0.15 86 1001.6
20260506035843 15 14 0.0 0.0 0.00 0.33 0.15 86 1001.5
20260506035343 15 14 0.0 0.0 0.00 0.33 0.15 86 1001.5
20260506034843 15 14 0.0 4.8 0.00 0.33 0.15 86 1001.5
20260506034342 15 136 1.6 1.6 0.00 0.33 0.15 86 1001.6
20260506033842 15 225 0.0 1.6 0.00 0.33 0.15 86 1001.5
20260506033342 15 40 0.0 1.6 0.00 0.33 0.15 86 1001.6
20260506032841 15 116 0.0 1.6 0.00 0.33 0.15 86 1001.6
20260506032341 15 142 0.0 6.4 0.00 0.33 0.15 86 1001.6
20260506031841 15 154 0.0 0.0 0.00 0.33 0.15 86 1001.6
20260506031341 15 154 0.0 0.0 0.00 0.33 0.15 86 1001.6
20260506030840 15 154 0.0 0.0 0.00 0.33 0.15 86 1001.6
20260506030340 15 154 0.0 0.0 0.00 0.33 0.15 86 1001.6
20260506025840 15 154 0.0 0.0 0.00 0.33 0.15 86 1001.6
20260506025339 15 154 0.0 0.0 0.00 0.33 0.15 86 1001.5
20260506024839 15 154 0.0 0.0 0.00 0.33 0.15 86 1001.6
20260506024339 15 154 0.0 0.0 0.00 0.33 0.15 86 1001.6
20260506023839 15 154 0.0 1.6 0.00 0.33 0.15 86 1001.6
20260506023338 15 154 0.0 1.6 0.00 0.33 0.15 87 1001.6
20260506022838 15 11 0.0 3.2 0.00 0.33 0.15 87 1001.7
20260506022338 15 32 1.6 4.8 0.00 0.33 0.15 86 1001.7
20260506021837 15 37 0.0 8.0 0.00 0.33 0.15 86 1001.7
20260506021337 15 16 1.6 3.2 0.00 0.33 0.15 87 1001.7
20260506020837 15 33 0.0 0.0 0.00 0.33 0.15 87 1001.7
20260506020337 15 33 0.0 0.0 0.00 0.33 0.15 87 1001.7
20260506015836 15 33 0.0 0.0 0.00 0.33 0.15 87 1001.7
20260506015336 15 33 0.0 3.2 0.00 0.33 0.15 87 1001.8
20260506014836 15 2 0.0 0.0 0.00 0.33 0.15 87 1001.8
20260506014335 15 2 0.0 8.0 0.00 0.33 0.15 87 1001.8
20260506013835 15 98 3.2 9.7 0.00 0.33 0.15 87 1001.9
20260506013335 15 12 1.6 8.0 0.00 0.33 0.15 87 1001.9
20260506012835 15 16 4.8 8.0 0.00 0.33 0.15 87 1001.9
20260506012334 15 25 0.0 6.4 0.00 0.33 0.15 87 1001.9
20260506011834 15 53 1.6 9.7 0.00 0.33 0.15 87 1001.9
20260506011334 15 46 3.2 6.4 0.00 0.33 0.15 87 1001.8
20260506010833 15 18 0.0 6.4 0.00 0.33 0.15 87 1001.8
20260506010333 15 329 0.0 4.8 0.03 0.33 0.15 87 1001.8
20260506005833 15 28 3.2 4.8 0.03 0.33 0.15 87 1001.8
20260506005333 15 47 1.6 8.0 0.03 0.33 0.15 87 1001.9
20260506004832 15 5 0.0 8.0 0.03 0.33 0.15 87 1001.8
20260506004332 15 5 1.6 6.4 0.03 0.33 0.15 87 1001.9
20260506003832 15 144 4.8 9.7 0.05 0.33 0.15 87 1001.9
20260506003332 15 14 1.6 11.3 0.08 0.33 0.15 87 1002.0
20260506002831 15 43 0.0 8.0 0.13 0.33 0.15 87 1001.9
20260506002331 15 306 1.6 8.0 0.15 0.33 0.15 87 1001.9
20260506001831 16 351 0.0 4.8 0.15 0.33 0.15 87 1002.0
20260506001330 15 30 0.0 3.2 0.15 0.33 0.15 87 1002.0
20260506000830 16 37 0.0 8.0 0.15 0.33 0.15 86 1002.0
20260506000330 16 85 1.6 8.0 0.13 0.30 0.13 86 1002.0
20260505235830 16 12 0.0 6.4 0.13 0.30 0.13 86 1002.0
20260505235329 16 317 0.0 0.0 0.13 0.30 0.13 86 1002.1
20260505234829 16 317 0.0 1.6 0.13 0.30 0.13 86 1002.0
20260505234329 16 244 0.0 0.0 0.13 0.30 0.13 86 1002.1
20260505233828 16 244 0.0 6.4 0.10 0.28 0.10 85 1002.2
20260505233328 16 73 4.8 9.7 0.08 0.25 0.08 85 1002.2
20260505232828 16 36 1.6 6.4 0.03 0.20 0.03 85 1002.2
20260505232328 16 329 0.0 6.4 0.00 0.18 0.00 85 1002.2
20260505231827 16 32 0.0 6.4 0.00 0.18 0.00 85 1002.3
20260505231327 16 11 0.0 11.3 0.00 0.18 0.00 84 1002.3
20260505230827 16 40 0.0 4.8 0.00 0.18 0.00 84 1002.3
20260505230326 16 16 1.6 9.7 0.00 0.18 0.00 84 1002.3
20260505225826 16 12 1.6 3.2 0.00 0.18 0.00 84 1002.3
20260505225326 16 57 0.0 8.0 0.00 0.18 0.00 84 1002.3
20260505224826 16 35 0.0 8.0 0.00 0.18 0.00 83 1002.3
20260505224325 16 63 0.0 9.7 0.00 0.18 0.00 83 1002.4
20260505223825 16 32 1.6 1.6 0.00 0.18 0.00 83 1002.4
20260505223325 16 32 0.0 0.0 0.00 0.18 0.00 83 1002.4
20260505222824 16 32 0.0 0.0 0.00 0.18 0.00 83 1002.5
20260505222324 16 32 0.0 4.8 0.00 0.18 0.00 82 1002.5
20260505221824 16 351 0.0 0.0 0.00 0.18 0.00 82 1002.5
20260505221324 16 351 0.0 0.0 0.00 0.18 0.00 82 1002.6
20260505220823 16 351 0.0 0.0 0.00 0.18 0.00 81 1002.6
20260505220323 16 351 0.0 0.0 0.00 0.18 0.00 81 1002.6
20260505215823 16 351 0.0 0.0 0.00 0.18 0.00 81 1002.7
20260505215322 17 351 0.0 0.0 0.00 0.18 0.00 81 1002.6
20260505214822 16 351 0.0 0.0 0.00 0.18 0.00 81 1002.6
20260505214322 17 351 0.0 0.0 0.00 0.18 0.00 81 1002.7
20260505213822 16 351 0.0 0.0 0.00 0.18 0.00 81 1002.8
20260505213321 16 351 0.0 0.0 0.00 0.18 0.00 81 1002.9
20260505212821 17 351 0.0 0.0 0.00 0.18 0.18 81 1002.8
20260505212321 16 351 0.0 0.0 0.00 0.18 0.18 81 1002.8
20260505211820 17 351 0.0 0.0 0.00 0.18 0.18 81 1002.9
20260505211320 17 351 0.0 0.0 0.00 0.18 0.18 81 1003.0
20260505210820 16 351 0.0 0.0 0.00 0.18 0.18 81 1003.0
20260505210320 17 351 0.0 0.0 0.00 0.18 0.18 81 1003.0
20260505205819 16 351 0.0 0.0 0.00 0.18 0.18 81 1003.0
20260505205319 16 351 0.0 0.0 0.00 0.18 0.18 82 1003.0
20260505204819 16 351 0.0 0.0 0.00 0.18 0.18 81 1003.0
20260505204318 17 351 0.0 1.6 0.00 0.18 0.18 81 1002.9
20260505203818 17 82 0.0 0.0 0.00 0.18 0.18 81 1003.0
20260505203318 17 82 0.0 0.0 0.00 0.18 0.18 81 1003.0
20260505202818 17 82 0.0 0.0 0.00 0.18 0.18 81 1003.0
20260505202317 17 82 0.0 0.0 0.00 0.18 0.18 81 1003.0
20260505201817 17 82 0.0 0.0 0.00 0.18 0.18 81 1003.1
20260505201317 17 82 0.0 0.0 0.00 0.18 0.18 81 1003.0
20260505200817 17 82 0.0 0.0 0.00 0.18 0.18 81 1003.0
20260505200316 17 82 0.0 0.0 0.00 0.18 0.18 81 1003.0
20260505195816 17 82 0.0 0.0 0.00 0.18 0.18 81 1002.9
20260505195316 17 82 0.0 0.0 0.00 0.18 0.18 81 1002.9
20260505194815 17 82 0.0 0.0 0.00 0.18 0.18 81 1002.9
20260505194315 17 82 0.0 0.0 0.00 0.18 0.18 80 1002.9
20260505193815 17 82 0.0 0.0 0.00 0.18 0.18 81 1002.8
20260505193315 17 82 0.0 0.0 0.00 0.18 0.18 80 1002.8
20260505192814 17 82 0.0 0.0 0.00 0.18 0.18 80 1002.8
20260505192314 17 82 0.0 0.0 0.00 0.18 0.18 80 1002.8
20260505191814 17 82 0.0 0.0 0.00 0.18 0.18 80 1002.8
20260505191313 17 82 0.0 0.0 0.00 0.18 0.18 80 1002.8
20260505190813 17 82 0.0 0.0 0.00 0.18 0.18 80 1002.7
20260505190313 17 82 0.0 0.0 0.00 0.18 0.18 80 1002.7
20260505185813 17 82 0.0 0.0 0.00 0.18 0.18 80 1002.8
20260505185312 17 82 0.0 0.0 0.00 0.18 0.18 79 1002.7
20260505184812 17 82 0.0 0.0 0.00 0.18 0.18 79 1002.7
20260505184312 17 82 0.0 0.0 0.00 0.18 0.18 79 1002.7
20260505183811 17 82 0.0 0.0 0.00 0.18 0.18 79 1002.7
20260505183311 17 82 0.0 0.0 0.00 0.18 0.18 79 1002.7
20260505182811 17 82 0.0 0.0 0.00 0.18 0.18 79 1002.7
20260505182311 17 82 0.0 0.0 0.00 0.18 0.18 79 1002.7
20260505181810 17 82 0.0 0.0 0.00 0.18 0.18 79 1002.7
20260505181310 17 82 0.0 0.0 0.03 0.18 0.18 79 1002.7
20260505180810 17 82 0.0 0.0 0.03 0.18 0.18 78 1002.7
20260505180309 17 82 0.0 0.0 0.03 0.18 0.18 78 1002.7
20260505175809 17 82 0.0 0.0 0.03 0.18 0.18 78 1002.7
20260505175309 17 82 0.0 0.0 0.03 0.18 0.18 78 1002.7
20260505174809 17 82 0.0 0.0 0.05 0.18 0.18 78 1002.8
20260505174308 17 82 0.0 0.0 0.05 0.18 0.18 78 1002.8
20260505173808 17 82 0.0 0.0 0.05 0.18 0.18 78 1002.9
20260505173308 17 82 0.0 0.0 0.05 0.18 0.18 78 1002.9
20260505172807 17 82 0.0 0.0 0.05 0.18 0.18 78 1002.9
20260505172307 17 82 0.0 0.0 0.08 0.18 0.18 77 1002.9
20260505171807 17 82 0.0 0.0 0.08 0.18 0.18 77 1003.0
20260505171307 17 82 0.0 0.0 0.08 0.15 0.15 77 1003.0
20260505170806 17 82 0.0 0.0 0.08 0.15 0.15 77 1002.9
20260505170306 17 82 0.0 0.0 0.10 0.15 0.15 77 1003.0
20260505165806 17 82 0.0 0.0 0.10 0.15 0.15 77 1003.0
20260505165306 17 82 0.0 0.0 0.13 0.15 0.15 77 1003.0
20260505164805 17 82 0.0 3.2 0.10 0.13 0.13 77 1003.0
20260505164305 18 116 0.0 0.0 0.10 0.13 0.13 77 1003.0
20260505163805 17 116 0.0 6.4 0.10 0.13 0.13 77 1003.1
20260505163304 17 90 0.0 4.8 0.10 0.13 0.13 77 1003.1
20260505162804 18 106 0.0 3.2 0.13 0.13 0.13 77 1003.2
20260505162306 18 74 0.0 0.0 0.10 0.10 0.10 76 1003.2
20260505161804 18 74 0.0 6.4 0.10 0.10 0.10 76 1003.3
20260505161303 18 91 0.0 1.6 0.08 0.08 0.08 76 1003.3
20260505160803 18 8 0.0 6.4 0.08 0.08 0.08 75 1003.3
20260505160303 18 309 1.6 6.4 0.05 0.05 0.05 74 1003.3
20260505153301 19 49 3.2 4.8 0.03 0.03 0.03 70 1003.4
20260505152801 19 23 0.0 8.0 0.00 0.00 0.00 69 1003.3
20260505152300 19 30 0.0 4.8 0.00 0.00 0.00 69 1003.3
20260505151800 19 54 0.0 4.8 0.00 0.00 0.00 69 1003.2
20260505151300 19 94 0.0 8.0 0.00 0.00 0.00 68 1003.2
20260505150800 20 12 0.0 9.7 0.00 0.00 0.00 68 1003.2
20260505150259 20 142 1.6 4.8 0.00 0.00 0.00 69 1003.2